Charleston, WV

1:41 AM EDT on May 30, 2017 (GMT -0400)
Yeager Airport

Weather History for KCRW - December, 2012

Change the Weather History Date:

Sunday, December 30, 2012

  Actual Average Record
Temperature  
Mean Temperature 27 °F 35 °F  
Max Temperature 31 °F 43 °F 72 °F (1990)
Min Temperature 22 °F 27 °F -17 °F (1917)
Degree Days  
Heating Degree Days 38 30  
Month to date heating degree days 648 826  
Since 1 July heating degree days 1687 1710  
Cooling Degree Days 0 0  
Month to date cooling degree days 0 0  
Year to date cooling degree days 1348 1096  
Moisture  
Dew Point 21 °F    
Average Humidity 78    
Maximum Humidity 92    
Minimum Humidity 63    
Precipitation  
Precipitation 0.04 in 0.09 in 1.55 in (1990)
Month to date precipitation 4.86 3.17  
Year to date precipitation 41.48 43.93  
Snow  
Snow 0.60 in - - ()
Month to date snowfall 2.5  
Since 1 September snowfall 12.6  
Snow Depth 1.00 in    
Sea Level Pressure  
Sea Level Pressure 30.37 in    
Wind  
Wind Speed 6 mph (WSW)    
Max Wind Speed 20 mph    
Max Gust Speed 35 mph    
Visibility 6 miles    
Events Snow    
T = Trace of Precipitation, MM = Missing Value Source: NWS Daily Summary

Daily Weather History Graph

Daily Weather History Graph

Search for Another Location

Airport or City:

Trip Planner

Search our weather history database for the weather conditions in past years. The results will help you decide how hot, cold, wet, or windy it might be!

Date:

Astronomy

Dec. 30, 2012 Rise Set
Actual Time 7:43 AM EST 5:15 PM EST
Civil Twilight 7:13 AM EST 5:44 PM EST
Nautical Twilight 6:40 AM EST 6:18 PM EST
Astronomical Twilight 6:08 AM EST 6:50 PM EST
Moon 7:43 PM EST 8:53 AM EST
Length of Visible Light 10h 31m
Length of Day
9h 32m
Waning Gibbous, 95% of the Moon is Illuminated
Dec 30
Waning Gibbous
Jan 4
Last Quarter
Jan 11
New
Jan 18
First Quarter
Jan 26
Full

Hourly Weather History & Observations

Time (EST) Temp. Windchill Dew Point Humidity Pressure Visibility Wind Dir Wind Speed Gust Speed Precip Events Conditions
12:41 AM 30.2 °F 20.2 °F 24.8 °F 80% 30.11 in 2.0 mi West 12.7 mph 19.6 mph 0.01 in Snow Light Snow
12:54 AM 30.0 °F 20.0 °F 24.1 °F 79% 30.14 in 2.0 mi West 12.7 mph 33.4 mph 0.01 in Snow Light Snow
1:54 AM 28.9 °F 20.4 °F 24.1 °F 82% 30.17 in 2.0 mi West 9.2 mph 19.6 mph 0.00 in Snow Light Snow
2:54 AM 28.0 °F 18.1 °F 21.9 °F 78% 30.21 in 2.0 mi West 11.5 mph 20.7 mph 0.01 in Snow Light Snow
3:54 AM 28.0 °F 20.0 °F 23.0 °F 81% 30.25 in 2.0 mi West 8.1 mph - 0.00 in Snow Light Snow
4:54 AM 28.0 °F 19.3 °F 21.9 °F 78% 30.29 in 2.0 mi West 9.2 mph 19.6 mph 0.01 in Snow Light Snow
5:54 AM 27.0 °F 15.6 °F 21.0 °F 78% 30.33 in 7.0 mi West 13.8 mph 20.7 mph 0.01 in Snow Light Snow
6:54 AM 27.0 °F 20.5 °F 19.9 °F 75% 30.37 in 8.0 mi WSW 5.8 mph - 0.00 in Snow Light Snow
7:54 AM 27.0 °F 20.5 °F 19.9 °F 75% 30.40 in 9.0 mi West 5.8 mph 17.3 mph 0.00 in Snow Light Snow
8:54 AM 27.0 °F 19.5 °F 19.9 °F 75% 30.43 in 4.0 mi WSW 6.9 mph - 0.00 in Snow Light Snow
9:15 AM 26.6 °F 16.8 °F 21.2 °F 80% 30.41 in 2.0 mi WSW 10.4 mph - 0.00 in Snow Light Snow
9:54 AM 26.1 °F 18.4 °F 21.0 °F 81% 30.45 in 2.0 mi WSW 6.9 mph - 0.00 in Snow Light Snow
10:17 AM 26.6 °F 17.5 °F 21.2 °F 80% 30.43 in 3.0 mi WSW 9.2 mph - 0.00 in Snow Light Snow
10:37 AM 26.6 °F 18.2 °F 21.2 °F 80% 30.43 in 3.0 mi WSW 8.1 mph - 0.00 in Snow Light Snow
10:54 AM 27.0 °F 19.5 °F 21.0 °F 78% 30.46 in 3.0 mi Variable 6.9 mph - 0.00 in Snow Light Snow
11:54 AM 28.0 °F 21.7 °F 21.0 °F 75% 30.44 in 7.0 mi WSW 5.8 mph - 0.00 in Snow Light Snow
12:54 PM 28.0 °F 20.0 °F 19.9 °F 72% 30.43 in 6.0 mi WSW 8.1 mph - 0.00 in Snow Light Snow
1:54 PM 28.0 °F 20.8 °F 19.9 °F 72% 30.43 in 9.0 mi West 6.9 mph - 0.00 in Snow Light Snow
2:54 PM 28.9 °F 19.8 °F 19.0 °F 67% 30.44 in 10.0 mi SW 10.4 mph - 0.00 in   Mostly Cloudy
3:54 PM 30.0 °F 23.2 °F 19.0 °F 64% 30.44 in 10.0 mi WSW 6.9 mph - N/A   Mostly Cloudy
4:54 PM 28.9 °F - 18.0 °F 64% 30.42 in 10.0 mi Calm Calm - N/A   Scattered Clouds
5:54 PM 28.0 °F - 19.0 °F 69% 30.43 in 10.0 mi Calm Calm - N/A   Clear
6:54 PM 25.0 °F 18.1 °F 18.0 °F 75% 30.45 in 10.0 mi South 5.8 mph - N/A   Clear
7:54 PM 25.0 °F 20.7 °F 19.0 °F 78% 30.45 in 10.0 mi South 3.5 mph - N/A   Clear
8:54 PM 24.1 °F - 21.0 °F 88% 30.43 in 8.0 mi Calm Calm - N/A   Clear
9:54 PM 23.0 °F - 19.9 °F 88% 30.45 in 7.0 mi Calm Calm - N/A   Clear
10:54 PM 21.9 °F - 19.9 °F 92% 30.40 in 6.0 mi Calm Calm - N/A   Clear
11:54 PM 21.9 °F - 19.0 °F 89% 30.40 in 6.0 mi Calm Calm - N/A   Clear